CO3D 2

Last updated on Mon Sep 21 2026 00:02:46 GMT+0000 (Coordinated Universal Time)

1 64902U 25156D 26263.53166014 .00001199 00000+0 58489-4 0 9992 2 64902 97.4341 340.7529 0001592 97.8209 262.3207 15.20200933 64011
UTC large
Height (km)
Speed (km/s)
/
Latitude / Longitude
Inclination (degrees)
Orbital Period (minutes)
Azimuth
Elevation
Range (km)
Doppler Factor

Next 0 passes for location: London (51.5072 / 0.1276)

No passes found over London.
CO3D 2